Погода в Пори

Финляндия     61°28′53″N   21°48′53″E
темп.,
°C
ветер,
м/с
пор.,
м/с
влажн.,
%
обл.,
%
осадки,
мм/ч
давл.,
гПа
погр.,
м
27 ноября, сб
сб2723:00−4юв237553 0.0 1003161
02:00−4юв247751 0.0 1004173
05:00−5вюв24795 0.0 1005183
08:00−5в35815 0.0 1006181
11:00−5в3668100 0.0 1007237
14:00−5в3763100 0.0 1007268
17:00−6в4869100 0.0 1008273
20:00−6в3870100 0.0 1008266
28 ноября, вс
вс2823:00−6всв3868100 0.0 1007260
02:00−6всв3866100 0.0 1007266
05:00−6всв3769100 0.0 1007269
08:00−6всв4869100 0.0 1007291
11:00−5всв4965100 0.0 1007331
14:00−5всв3856100 0.0 1007366
17:00−5всв3862100 0.0 1008320
20:00−5всв3768100 0.0 1009341
29 ноября, пн
пн2923:00−5всв3775100 0.0 1009318
02:00−6в487960 0.0 1009369
05:00−6в498481 0.0 1009355
08:00−6всв48855 0.0 1008342
11:00−6всв48845 0.0 1008329
14:00−6всв488114 0.0 1006386
17:00−7св478669 0.0 1005324
20:00−7св3785100 0.0 1003308
30 ноября, вт
вт3023:00−8св478314 0.0 1001377
02:00−8ссв487977 0.0 998368
05:00−8ссв498113 0.0 996347
08:00−9с49795 0.0 995392
11:00−9ссв511714 0.0 994404
14:00−8с511674 0.0 993515
17:00−8с511734 0.0 993493
20:00−8с412721 0.0 993514
1 декабря, ср
ср123:00−7с410727 0.0 994388
02:00−6с378789 0.0 994313
05:00−5ссв3773100 0.0 994360
08:00−6ссв258293 0.0 995219
11:00−6ссв128553 0.1 996135
14:00−5ююв129093 0.3 995139
17:00−6вюв129286 0.6 994135
20:00−7юв229679 0.7 99399